Location: Bucquoy
(50.1391°N, 2.7097°E)
Time: 09:23:12
(UTC+00:00)

GP-B - Pass Details

Date: 06 May 2021
Orbit: 631 x 635 km, 89.8° (Epoch: 21 June)

Event Time Altitude Azimuth Distance (km) Brightness Sun altitude
Rises 02:12:23 0° 7° (N) 2,946 7.6 -15.9°
Reaches altitude 10° 02:14:44 10° 15° (NNE) 2,032 6.8 -15.7°
Maximum altitude 02:18:57 40° 85° (E) 949 4.4 -15.3°
Drops below altitude 10° 02:23:07 10° 155° (SSE) 2,014 5.4 -14.9°
Enters shadow 02:24:22 - 160° (SSE) 2,494 5.9 -14.7°
